TimeCST,TemperatureF,Dew PointF,Humidity,Sea Level PressureIn,VisibilityMPH,Wind Direction,Wind SpeedMPH,Gust SpeedMPH,PrecipitationIn,Events,Conditions,WindDirDegrees,DateUTC
12:15 AM,65.1,50.4,59,29.74,10.0,SSW,21.9,27.6,N/A,,Clear,200,2012-11-11 06:15:00
12:35 AM,64.8,50.9,61,29.74,10.0,SSW,21.9,26.5,N/A,,Scattered Clouds,200,2012-11-11 06:35:00
12:55 AM,64.8,51.1,61,29.74,10.0,South,18.4,28.8,N/A,,Overcast,190,2012-11-11 06:55:00
1:15 AM,64.8,51.6,62,29.73,10.0,South,16.1,23.0,N/A,,Overcast,190,2012-11-11 07:15:00
1:35 AM,64.6,52.0,64,29.74,10.0,South,15.0,20.7,N/A,,Overcast,190,2012-11-11 07:35:00
1:55 AM,64.6,52.5,65,29.75,10.0,SSW,13.8,-,N/A,,Overcast,200,2012-11-11 07:55:00
2:15 AM,64.4,52.7,66,29.75,10.0,South,13.8,-,N/A,,Overcast,180,2012-11-11 08:15:00
2:35 AM,64.4,53.1,67,29.75,10.0,South,12.7,-,N/A,,Overcast,190,2012-11-11 08:35:00
2:55 AM,63.9,53.8,70,29.76,10.0,SSW,13.8,-,N/A,Rain,Light Rain,200,2012-11-11 08:55:00
3:15 AM,64.4,53.6,68,29.75,10.0,SSW,10.4,-,N/A,,Overcast,210,2012-11-11 09:15:00
3:35 AM,63.5,54.0,71,29.76,10.0,West,12.7,-,N/A,,Overcast,260,2012-11-11 09:35:00
3:55 AM,62.6,54.9,76,29.73,10.0,South,10.4,-,N/A,,Overcast,180,2012-11-11 09:55:00
4:15 AM,61.9,54.7,77,29.73,10.0,South,10.4,-,N/A,,Overcast,170,2012-11-11 10:15:00
4:35 AM,61.7,55.2,79,29.71,10.0,SSE,11.5,-,N/A,Rain,Light Rain,160,2012-11-11 10:35:00
4:55 AM,61.7,55.4,80,29.71,10.0,South,11.5,-,N/A,,Overcast,170,2012-11-11 10:55:00
5:35 AM,62.6,55.0,76,29.69,10.0,South,15.0,-,N/A,,Overcast,170,2012-11-11 11:35:00
5:55 AM,62.2,55.6,79,29.68,10.0,SSE,16.1,-,N/A,,Overcast,160,2012-11-11 11:55:00
6:15 AM,61.7,55.8,81,29.70,10.0,West,11.5,-,N/A,Rain,Rain,260,2012-11-11 12:15:00
6:35 AM,60.3,56.3,87,29.70,10.0,WNW,10.4,-,0.01,Rain,Rain,290,2012-11-11 12:35:00
6:55 AM,59.0,56.3,91,29.70,4.0,WNW,6.9,-,0.12,Rain,Rain,300,2012-11-11 12:55:00
7:35 AM,58.3,55.8,91,29.68,10.0,NW,6.9,-,0.02,Rain,Light Rain,320,2012-11-11 13:35:00
7:55 AM,57.9,55.6,92,29.67,5.0,NW,9.2,-,0.04,Rain,Rain,310,2012-11-11 13:55:00
8:15 AM,57.6,55.4,92,29.71,1.8,WSW,11.5,-,0.18,Rain,Heavy Rain,250,2012-11-11 14:15:00
8:35 AM,57.6,55.4,92,29.71,4.0,WSW,9.2,-,0.37,Rain,Heavy Rain,240,2012-11-11 14:35:00
8:55 AM,47.8,45.1,90,29.74,4.0,WNW,25.3,31.1,0.44,Rain,Light Rain,300,2012-11-11 14:55:00
9:15 AM,45.9,43.7,92,29.75,5.0,WNW,19.6,23.0,0.01,Rain,Light Rain,300,2012-11-11 15:15:00
9:35 AM,44.2,41.9,91,29.73,5.0,NW,17.3,27.6,0.04,Rain,Rain,320,2012-11-11 15:35:00
9:55 AM,43.7,41.4,91,29.78,7.0,WNW,15.0,-,0.06,Rain,Light Rain,300,2012-11-11 15:55:00
10:15 AM,43.3,41.0,91,29.74,4.0,NW,10.4,-,0.05,Rain,Heavy Rain,310,2012-11-11 16:15:00
10:35 AM,42.8,40.3,91,29.78,7.0,WNW,16.1,20.7,0.08,Rain,Rain,300,2012-11-11 16:35:00
10:55 AM,42.3,40.1,92,29.77,5.0,WNW,12.7,-,0.12,Rain,Rain,300,2012-11-11 16:55:00
11:15 AM,41.0,38.5,91,29.78,10.0,WNW,16.1,-,0.01,Rain,Light Rain,300,2012-11-11 17:15:00
11:35 AM,39.6,36.9,90,29.79,5.0,NW,20.7,32.2,0.04,Rain,Rain,310,2012-11-11 17:35:00
12:15 PM,37.9,35.4,91,29.79,3.0,NW,18.4,24.2,0.03,Rain,Rain,310,2012-11-11 18:15:00
12:35 PM,37.4,34.7,90,29.81,4.0,WNW,15.0,18.4,0.07,Rain,Rain,300,2012-11-11 18:35:00
12:55 PM,36.9,34.3,91,29.80,3.0,WNW,15.0,20.7,0.10,Rain,Rain,300,2012-11-11 18:55:00
1:15 PM,36.7,34.3,91,29.82,1.8,WNW,16.1,19.6,0.05,Rain,Light Rain,300,2012-11-11 19:15:00
1:35 PM,36.1,33.8,91,29.82,1.8,WNW,18.4,-,0.10,Rain,Rain,290,2012-11-11 19:35:00
1:55 PM,35.1,32.5,91,29.85,2.0,WNW,19.6,-,0.14,Rain,Rain,300,2012-11-11 19:55:00
2:15 PM,34.7,32.2,91,29.84,2.5,WNW,15.0,-,0.03,Rain,Rain,300,2012-11-11 20:15:00
2:35 PM,34.0,32.0,92,29.84,3.0,WNW,18.4,24.2,0.04,Rain,Rain,300,2012-11-11 20:35:00
2:55 PM,33.6,31.8,93,29.85,4.0,NW,17.3,25.3,0.05,Rain,Light Rain,310,2012-11-11 20:55:00
3:15 PM,33.4,31.8,94,29.86,7.0,WNW,20.7,-,N/A,,Overcast,300,2012-11-11 21:15:00
3:35 PM,32.9,31.1,93,29.89,7.0,WNW,20.7,25.3,N/A,,Overcast,290,2012-11-11 21:35:00
3:55 PM,32.9,30.9,92,29.92,3.0,WNW,15.0,-,N/A,,Overcast,300,2012-11-11 21:55:00
4:15 PM,32.5,30.7,93,29.92,5.0,WNW,17.3,-,N/A,,Overcast,290,2012-11-11 22:15:00
4:35 PM,32.0,29.8,92,29.93,10.0,NW,21.9,27.6,N/A,,Overcast,310,2012-11-11 22:35:00
4:55 PM,32.0,29.7,91,29.95,10.0,WNW,21.9,27.6,N/A,,Overcast,300,2012-11-11 22:55:00
5:15 PM,32.0,29.1,89,29.97,10.0,WNW,18.4,-,N/A,,Overcast,300,2012-11-11 23:15:00
5:35 PM,32.0,28.4,87,29.97,10.0,WNW,17.3,21.9,N/A,,Overcast,300,2012-11-11 23:35:00
5:55 PM,32.4,28.4,85,29.94,10.0,WNW,18.4,25.3,N/A,,Overcast,300,2012-11-11 23:55:00
6:15 PM,32.2,28.2,85,29.98,10.0,WNW,17.3,25.3,N/A,,Overcast,300,2012-11-12 00:15:00
6:35 PM,32.4,27.9,83,30.00,10.0,WNW,15.0,21.9,N/A,,Overcast,290,2012-11-12 00:35:00
6:55 PM,32.2,27.0,81,30.02,10.0,WNW,20.7,-,N/A,,Overcast,300,2012-11-12 00:55:00
7:15 PM,32.2,25.9,78,30.01,10.0,WNW,20.7,27.6,N/A,,Overcast,290,2012-11-12 01:15:00
7:35 PM,32.0,25.7,78,30.00,10.0,NW,17.3,24.2,N/A,,Mostly Cloudy,310,2012-11-12 01:35:00
7:55 PM,31.6,24.1,74,30.04,10.0,WNW,24.2,31.1,N/A,,Mostly Cloudy,300,2012-11-12 01:55:00
8:15 PM,30.9,23.9,75,30.04,10.0,NW,17.3,28.8,N/A,,Scattered Clouds,310,2012-11-12 02:15:00
8:35 PM,30.6,23.5,75,30.05,10.0,WNW,17.3,25.3,N/A,,Clear,300,2012-11-12 02:35:00
8:55 PM,30.2,22.6,73,30.06,10.0,WNW,18.4,25.3,N/A,,Clear,300,2012-11-12 02:55:00
9:15 PM,29.8,21.9,72,30.07,10.0,WNW,17.3,25.3,N/A,,Clear,300,2012-11-12 03:15:00
9:35 PM,29.3,21.9,74,30.07,10.0,WNW,17.3,21.9,N/A,,Clear,300,2012-11-12 03:35:00
9:55 PM,29.1,21.9,74,30.08,10.0,WNW,17.3,-,N/A,,Clear,300,2012-11-12 03:55:00
10:15 PM,28.9,21.2,73,30.08,10.0,WNW,15.0,-,N/A,,Clear,300,2012-11-12 04:15:00
10:35 PM,28.6,21.0,73,30.09,10.0,WNW,16.1,21.9,N/A,,Clear,300,2012-11-12 04:35:00
10:55 PM,28.4,20.1,71,30.10,10.0,WNW,20.7,25.3,N/A,,Clear,300,2012-11-12 04:55:00
11:15 PM,28.0,21.2,76,30.10,10.0,WNW,9.2,-,N/A,,Scattered Clouds,290,2012-11-12 05:15:00
11:35 PM,27.5,20.3,74,30.12,10.0,WNW,12.7,20.7,N/A,,Scattered Clouds,300,2012-11-12 05:35:00
11:55 PM,27.0,19.0,72,30.12,10.0,WNW,16.1,23.0,N/A,,Clear,300,2012-11-12 05:55:00